Location: Darlington Observatory
(36.4817°N, 105.8156°W)
Time: 11:01:39
(UTC-06:00)

MOS 1 - Visible Passes

Search period start: 25 September 2017 00:00
Search period end: 05 October 2017 00:00
Orbit: 879 x 891 km, 99.3° (Epoch: 24 September)

Date Brightness Start Highest point End Pass type
(mag) Time Alt. Az. Time Alt. Az. Time Alt. Az.
25 Sep 7.1 20:33:05 10° SW 20:36:31 16° W 20:39:57 10° NW visible
26 Sep 7.1 20:31:10 10° SW 20:34:45 17° W 20:38:20 10° NW visible
27 Sep 7.1 20:29:16 10° SW 20:32:58 18° W 20:36:42 10° NW visible
28 Sep 7.0 20:27:22 10° SW 20:31:12 19° W 20:35:03 10° NW visible
29 Sep 6.9 20:25:29 10° SW 20:29:25 19° W 20:33:24 10° NW visible
30 Sep 6.9 20:23:36 10° SW 20:27:40 20° W 20:31:45 10° NW visible
01 Oct 6.8 20:21:44 10° SW 20:25:53 21° W 20:30:05 10° NW visible
02 Oct 6.8 20:19:52 10° SW 20:24:07 22° W 20:28:25 10° NW visible
03 Oct 6.7 20:18:00 10° SW 20:22:22 23° W 20:26:44 10° NW visible
04 Oct 6.6 20:16:09 10° SSW 20:20:35 24° W 20:25:04 10° NW visible
